• In Belgium
  • List of Countries
  • For 7 days
  • Water Temperature
  • Satellite Maps
  • Weather Map
  • Weather Widgets
  • user-avatar
    Login

    Hourly Weather Kungur

    Today, 24 February, Saturday

    Time Temperature Precipitation Wind Pressure Humidity
    00:00 -20°C° 0 mm 2 mps 752 mmHg 97%
    01:00 -20°C° 0 mm 2 mps 753 mmHg 97%
    02:00 -20°C° 0 mm 2 mps 753 mmHg 97%
    03:00 -20°C° 0 mm 2 mps 753 mmHg 97%
    04:00 -21°C° 0 mm 2 mps 753 mmHg 97%
    05:00 -21°C° 0 mm 2 mps 753 mmHg 97%
    06:00 -23°C° 0 mm 2 mps 753 mmHg 97%
    07:00 -23°C° 0 mm 2 mps 753 mmHg 97%
    08:00 -23°C° 0 mm 3 mps 753 mmHg 96%
    09:00 -22°C° 0 mm 3 mps 753 mmHg 94%
    10:00 -21°C° 0 mm 3 mps 753 mmHg 93%
    11:00 -19°C° 0 mm 3 mps 753 mmHg 91%
    12:00 -18°C° 0 mm 3 mps 753 mmHg 88%
    13:00 -17°C° 0 mm 3 mps 753 mmHg 86%
    14:00 -17°C° 0.1 mm 3 mps 754 mmHg 86%
    15:00 -17°C° 0.1 mm 3 mps 754 mmHg 86%
    16:00 -17°C° 0.1 mm 3 mps 754 mmHg 86%
    17:00 -18°C° 0.1 mm 3 mps 754 mmHg 89%
    18:00 -19°C° 0.1 mm 3 mps 754 mmHg 92%
    19:00 -19°C° 0.1 mm 2 mps 754 mmHg 95%
    20:00 -20°C° 0 mm 2 mps 754 mmHg 95%
    21:00 -21°C° 0 mm 2 mps 755 mmHg 96%
    22:00 -23°C° 0 mm 2 mps 755 mmHg 96%
    23:00 -21°C° 0 mm 1 mps 755 mmHg 96%

    Tomorrow, 25 February, Sunday

    Time Temperature Precipitation Wind Pressure Humidity
    00:00 -22°C° 0 mm 1 mps 755 mmHg 96%
    01:00 -24°C° 0 mm 1 mps 755 mmHg 96%
    02:00 -24°C° 0 mm 1 mps 756 mmHg 97%
    03:00 -25°C° 0 mm 1 mps 756 mmHg 97%
    04:00 -27°C° 0 mm 1 mps 756 mmHg 98%
    05:00 -26°C° 0 mm 0 mps 756 mmHg 98%
    06:00 -26°C° 0 mm 0 mps 756 mmHg 98%
    07:00 -27°C° 0 mm 0 mps 756 mmHg 98%
    08:00 -25°C° 0 mm 0 mps 756 mmHg 96%
    09:00 -23°C° 0 mm 0 mps 756 mmHg 94%
    10:00 -21°C° 0 mm 0 mps 757 mmHg 91%
    11:00 -19°C° 0 mm 1 mps 757 mmHg 88%
    12:00 -18°C° 0 mm 1 mps 757 mmHg 85%
    13:00 -17°C° 0 mm 1 mps 757 mmHg 82%
    14:00 -16°C° 0 mm 1 mps 756 mmHg 83%
    15:00 -16°C° 0 mm 1 mps 756 mmHg 84%
    16:00 -16°C° 0 mm 1 mps 756 mmHg 84%
    17:00 -18°C° 0 mm 1 mps 756 mmHg 87%
    18:00 -19°C° 0 mm 1 mps 756 mmHg 89%
    19:00 -24°C° 0 mm 2 mps 757 mmHg 92%
    20:00 -24°C° 0 mm 2 mps 757 mmHg 92%
    21:00 -24°C° 0 mm 2 mps 757 mmHg 93%
    22:00 -24°C° 0 mm 2 mps 757 mmHg 93%
    23:00 -25°C° 0 mm 3 mps 757 mmHg 94%

    Day after tomorrow, 26 February, Monday

    Time Temperature Precipitation Wind Pressure Humidity
    00:00 -26°C° 0 mm 3 mps 757 mmHg 94%
    01:00 -26°C° 0 mm 3 mps 758 mmHg 95%
    02:00 -26°C° 0 mm 3 mps 758 mmHg 94%
    03:00 -26°C° 0 mm 3 mps 758 mmHg 94%
    04:00 -26°C° 0 mm 3 mps 758 mmHg 94%
    05:00 -26°C° 0 mm 3 mps 759 mmHg 93%
    06:00 -26°C° 0 mm 3 mps 759 mmHg 93%
    07:00 -27°C° 0 mm 4 mps 759 mmHg 93%
    08:00 -26°C° 0 mm 4 mps 759 mmHg 92%
    09:00 -25°C° 0 mm 4 mps 759 mmHg 91%
    10:00 -25°C° 0 mm 5 mps 760 mmHg 90%
    11:00 -24°C° 0 mm 5 mps 760 mmHg 89%
    12:00 -22°C° 0 mm 5 mps 760 mmHg 88%
    13:00 -21°C° 0 mm 5 mps 760 mmHg 87%
    14:00 -21°C° 0 mm 5 mps 760 mmHg 86%
    15:00 -21°C° 0 mm 5 mps 760 mmHg 86%
    16:00 -20°C° 0 mm 5 mps 760 mmHg 86%
    17:00 -22°C° 0 mm 5 mps 760 mmHg 87%
    18:00 -24°C° 0 mm 5 mps 760 mmHg 88%
    19:00 -25°C° 0 mm 5 mps 761 mmHg 89%
    20:00 -25°C° 0 mm 5 mps 761 mmHg 89%
    21:00 -26°C° 0 mm 5 mps 761 mmHg 89%
    22:00 -26°C° 0 mm 5 mps 761 mmHg 89%
    23:00 -26°C° 0 mm 5 mps 761 mmHg 89%

    27 February, Tuesday

    Time Temperature Precipitation Wind Pressure Humidity
    00:00 -25°C° 0 mm 5 mps 761 mmHg 89%
    01:00 -26°C° 0 mm 6 mps 761 mmHg 89%
    02:00 -26°C° 0.2 mm 6 mps 761 mmHg 90%
    03:00 -26°C° 0.2 mm 6 mps 760 mmHg 90%
    04:00 -26°C° 0.2 mm 6 mps 760 mmHg 91%
    05:00 -26°C° 0.3 mm 6 mps 760 mmHg 92%
    06:00 -26°C° 0.3 mm 7 mps 760 mmHg 92%
    07:00 -26°C° 0.3 mm 7 mps 759 mmHg 92%
    08:00 -25°C° 0.4 mm 7 mps 759 mmHg 93%
    09:00 -25°C° 0.4 mm 7 mps 759 mmHg 93%
    10:00 -24°C° 0.4 mm 7 mps 759 mmHg 93%
    11:00 -23°C° 0.7 mm 7 mps 759 mmHg 93%
    12:00 -23°C° 0.7 mm 7 mps 758 mmHg 93%
    13:00 -21°C° 0.7 mm 7 mps 758 mmHg 93%
    14:00 -21°C° 0.5 mm 7 mps 758 mmHg 93%
    15:00 -20°C° 0.5 mm 7 mps 757 mmHg 93%
    16:00 -20°C° 0.5 mm 7 mps 757 mmHg 93%
    17:00 -20°C° 0.3 mm 7 mps 757 mmHg 92%
    18:00 -20°C° 0.3 mm 6 mps 758 mmHg 92%
    19:00 -20°C° 0.3 mm 6 mps 758 mmHg 91%
    20:00 -20°C° 0.2 mm 6 mps 758 mmHg 91%
    21:00 -20°C° 0.2 mm 6 mps 758 mmHg 91%
    22:00 -18°C° 0.2 mm 5 mps 758 mmHg 91%
    23:00 -18°C° 0.2 mm 5 mps 759 mmHg 91%

    28 February, Wednesday

    Time Temperature Precipitation Wind Pressure Humidity
    00:00 -18°C° 0.2 mm 5 mps 759 mmHg 91%
    01:00 -17°C° 0.2 mm 4 mps 759 mmHg 92%
    02:00 -17°C° 0.1 mm 4 mps 759 mmHg 92%
    03:00 -17°C° 0.1 mm 4 mps 760 mmHg 92%
    04:00 -18°C° 0.1 mm 4 mps 760 mmHg 92%
    05:00 -18°C° 0.1 mm 4 mps 761 mmHg 92%
    06:00 -17°C° 0.1 mm 3 mps 761 mmHg 92%
    07:00 -18°C° 0.1 mm 3 mps 761 mmHg 93%
    08:00 -18°C° 0.1 mm 3 mps 762 mmHg 92%
    09:00 -18°C° 0.1 mm 4 mps 762 mmHg 91%
    10:00 -18°C° 0.1 mm 4 mps 763 mmHg 90%
    11:00 -18°C° 0 mm 4 mps 763 mmHg 89%
    12:00 -16°C° 0 mm 3 mps 763 mmHg 89%
    13:00 -15°C° 0 mm 3 mps 763 mmHg 88%
    14:00 -15°C° 0 mm 3 mps 763 mmHg 88%
    15:00 -15°C° 0 mm 3 mps 763 mmHg 88%
    16:00 -15°C° 0 mm 3 mps 764 mmHg 87%
    17:00 -17°C° 0 mm 3 mps 764 mmHg 90%
    18:00 -17°C° 0 mm 2 mps 764 mmHg 92%
    19:00 -19°C° 0 mm 2 mps 764 mmHg 94%
    20:00 -20°C° 0 mm 2 mps 764 mmHg 94%
    21:00 -21°C° 0 mm 2 mps 764 mmHg 95%
    22:00 -20°C° 0 mm 1 mps 764 mmHg 95%
    23:00 -20°C° 0 mm 1 mps 764 mmHg 95%

    1 March, Thursday

    Time Temperature Precipitation Wind Pressure Humidity
    00:00 -21°C° 0 mm 1 mps 764 mmHg 95%
    01:00 -21°C° 0 mm 1 mps 764 mmHg 95%
    02:00 -21°C° 0 mm 1 mps 764 mmHg 96%
    03:00 -21°C° 0 mm 1 mps 763 mmHg 97%
    04:00 -21°C° 0 mm 1 mps 763 mmHg 98%
    05:00 -21°C° 0 mm 1 mps 763 mmHg 98%
    06:00 -24°C° 0 mm 2 mps 763 mmHg 99%
    07:00 -23°C° 0 mm 2 mps 763 mmHg 99%
    08:00 -21°C° 0 mm 2 mps 762 mmHg 96%
    09:00 -19°C° 0 mm 2 mps 762 mmHg 94%
    10:00 -18°C° 0 mm 3 mps 761 mmHg 92%
    11:00 -16°C° 0 mm 3 mps 761 mmHg 90%
    12:00 -15°C° 0 mm 3 mps 760 mmHg 88%
    13:00 -14°C° 0 mm 4 mps 760 mmHg 86%
    14:00 -12°C° 0 mm 4 mps 759 mmHg 86%
    15:00 -12°C° 0 mm 4 mps 759 mmHg 86%
    16:00 -11°C° 0 mm 4 mps 758 mmHg 86%
    17:00 -14°C° 0 mm 4 mps 758 mmHg 88%
    18:00 -15°C° 0 mm 4 mps 758 mmHg 90%
    19:00 -15°C° 0 mm 3 mps 758 mmHg 91%
    20:00 -15°C° 0 mm 3 mps 758 mmHg 92%
    21:00 -16°C° 0 mm 3 mps 758 mmHg 93%
    22:00 -16°C° 0 mm 3 mps 758 mmHg 94%
    23:00 -16°C° 0 mm 3 mps 758 mmHg 94%
    Show more